29-06-2023, 00:00:04,    345,    2.2,   13.3,   0.00,   0.00, 1013.3,    0.4, -999.0
29-06-2023, 00:00:14,    313,    0.8,   13.3,   0.00,   0.00, 1013.2,    0.4, -999.0
29-06-2023, 00:00:24,    342,    0.8,   13.3,   0.00,   0.00, 1013.2,    0.2, -999.0
29-06-2023, 00:00:34,    332,    1.5,   13.3,   0.00,   0.00, 1013.2,    0.2, -999.0
29-06-2023, 00:00:44,    352,    2.5,   13.3,   0.00,   0.00, 1013.3,    0.4, -999.0
29-06-2023, 00:00:54,    315,    1.9,   13.2,   0.00,   0.00, 1013.3,    0.2, -999.0
29-06-2023, 00:01:04,    351,    2.3,   13.2,   0.00,   0.00, 1013.3,    0.2, -999.0
29-06-2023, 00:01:13,    325,    2.8,   13.1,   0.00,   0.01, 1013.3,    0.4, -999.0
29-06-2023, 00:01:24,    297,    1.1,   13.1,   0.00,   0.00, 1013.3,    0.3, -999.0
29-06-2023, 00:01:34,    308,    0.4,   13.1,   0.00,   0.00, 1013.2,    0.3, -999.0
29-06-2023, 00:01:43,    347,    2.6,   13.2,   0.00,   0.00, 1013.3,    0.3, -999.0
29-06-2023, 00:01:54,    344,    2.9,   13.2,   0.00,   0.00, 1013.3,    0.3, -999.0
29-06-2023, 00:02:04,    309,    1.8,   13.1,   0.00,   0.00, 1013.3,    0.4, -999.0
29-06-2023, 00:02:13,    312,    0.5,   13.0,   0.00,   0.00, 1013.3,    0.5, -999.0
29-06-2023, 00:02:23,    335,    2.4,   13.0,   0.00,   0.00, 1013.3,    0.4, -999.0
29-06-2023, 00:02:34,    334,    2.1,   13.0,   0.00,   0.00, 1013.3,    0.4, -999.0
29-06-2023, 00:02:44,    322,    2.1,   13.1,   0.00,   0.00, 1013.3,    0.3, -999.0
29-06-2023, 00:02:53,    342,    3.4,   13.1,   0.00,   0.00, 1013.3,    0.3, -999.0
29-06-2023, 00:03:03,    295,    2.4,   13.1,   0.00,   0.01, 1013.2,    0.4, -999.0
29-06-2023, 00:03:14,    289,    0.6,   13.1,   0.00,   0.00, 1013.2,    0.4, -999.0
29-06-2023, 00:03:23,    290,    0.0,   13.0,   0.00,   0.00, 1013.1,    0.4, -999.0
29-06-2023, 00:03:33,    290,    0.4,   13.0,   0.00,   0.00, 1013.2,    0.5, -999.0
29-06-2023, 00:03:43,    298,    1.5,   13.1,   0.00,   0.00, 1013.3,    0.4, -999.0
29-06-2023, 00:03:53,    353,    3.8,   13.0,   0.00,   0.00, 1013.3,    0.3, -999.0
29-06-2023, 00:04:03,    303,    1.7,   13.1,   0.00,   0.00, 1013.3,    0.5, -999.0
29-06-2023, 00:04:13,    321,    3.9,   13.1,   0.00,   0.00, 1013.3,    0.3, -999.0
29-06-2023, 00:04:23,    310,    3.7,   13.0,   0.00,   0.00, 1013.3,    0.4, -999.0
29-06-2023, 00:04:33,    325,    1.7,   12.9,   0.00,   0.00, 1013.3,    0.3, -999.0
29-06-2023, 00:04:43,    317,    3.5,   12.9,   0.00,   0.01, 1013.3,    0.4, -999.0
29-06-2023, 00:04:53,    336,    1.4,   13.0,   0.00,   0.00, 1013.3,    0.5, -999.0
29-06-2023, 00:05:03,    336,    2.1,   13.0,   0.00,   0.00, 1013.3,    0.5, -999.0
29-06-2023, 00:05:13,    333,    2.5,   13.0,   0.00,   0.00, 1013.3,    0.2, -999.0
29-06-2023, 00:05:23,    334,    1.6,   13.0,   0.00,   0.00, 1013.2,    0.3, -999.0
29-06-2023, 00:05:33,    334,    3.7,   13.0,   0.00,   0.00, 1013.2,    0.3, -999.0
29-06-2023, 00:05:43,    324,    3.0,   12.8,   0.00,   0.00, 1013.2,    0.3, -999.0
29-06-2023, 00:05:53,    323,    1.5,   12.9,   0.00,   0.00, 1013.3,    0.2, -999.0
29-06-2023, 00:06:03,    316,    1.0,   13.0,   0.00,   0.01, 1013.2,    0.4, -999.0
29-06-2023, 00:06:13,    321,    1.1,   13.0,   0.00,   0.00, 1013.3,    0.3, -999.0
29-06-2023, 00:06:23,    325,    0.8,   13.0,   0.00,   0.00, 1013.3,    0.3, -999.0
29-06-2023, 00:06:33,    334,    1.0,   13.0,   0.00,   0.00, 1013.2,    0.2, -999.0
29-06-2023, 00:06:43,    335,    1.9,   13.0,   0.00,   0.00, 1013.2,    0.5, -999.0
29-06-2023, 00:06:53,    331,    1.7,   13.0,   0.00,   0.00, 1013.2,    0.3, -999.0
29-06-2023, 00:07:03,    327,    1.7,   13.0,   0.00,   0.00, 1013.2,    0.4, -999.0
29-06-2023, 00:07:13,    293,    2.2,   12.9,   0.00,   0.00, 1013.2,    0.3, -999.0
29-06-2023, 00:07:23,    306,    1.5,   12.9,   0.00,   0.01, 1013.3,    0.2, -999.0
29-06-2023, 00:07:32,    307,    1.3,   12.9,   0.00,   0.00, 1013.2,    0.3, -999.0
29-06-2023, 00:07:43,     13,    1.3,   13.0,   0.00,   0.00, 1013.2,    0.2, -999.0
29-06-2023, 00:07:53,      0,    0.1,   12.9,   0.00,   0.00, 1013.1,    0.3, -999.0
29-06-2023, 00:08:03,    345,    0.3,   12.9,   0.00,   0.00, 1013.1,    0.2, -999.0
29-06-2023, 00:08:12,    325,    1.7,   12.9,   0.00,   0.00, 1013.3,    0.3, -999.0
29-06-2023, 00:08:23,    340,    2.5,   13.0,   0.00,   0.00, 1013.3,    0.3, -999.0
29-06-2023, 00:08:33,    344,    2.3,   12.9,   0.00,   0.00, 1013.3,    0.3, -999.0
29-06-2023, 00:08:42,    341,    0.9,   12.9,   0.00,   0.01, 1013.3,    0.4, -999.0
29-06-2023, 00:08:52,    342,    0.9,   12.9,   0.00,   0.00, 1013.3,    0.2, -999.0
29-06-2023, 00:09:03,    342,    0.0,   12.9,   0.00,   0.00, 1013.1,    0.3, -999.0
29-06-2023, 00:09:12,    340,    0.8,   12.9,   0.00,   0.00, 1013.2,    0.2, -999.0
29-06-2023, 00:09:22,    338,    1.4,   12.9,   0.00,   0.00, 1013.2,    0.2, -999.0
29-06-2023, 00:09:33,    337,    1.0,   12.9,   0.00,   0.00, 1013.2,    0.3, -999.0
29-06-2023, 00:09:42,    333,    0.9,   13.0,   0.00,   0.00, 1013.2,    0.3, -999.0
29-06-2023, 00:09:52,    335,    1.7,   12.9,   0.00,   0.00, 1013.2,    0.4, -999.0
29-06-2023, 00:10:02,    327,    1.7,   13.0,   0.00,   0.00, 1013.2,    0.3, -999.0
29-06-2023, 00:10:12,    346,    1.1,   12.9,   0.00,   0.01, 1013.2,    0.3, -999.0
29-06-2023, 00:10:22,    343,    0.5,   12.9,   0.00,   0.00, 1013.2,    0.2, -999.0
29-06-2023, 00:10:32,    345,    0.0,   12.9,   0.00,   0.00, 1013.1,    0.0, -999.0
29-06-2023, 00:10:42,    344,    0.4,   12.9,   0.00,   0.00, 1013.2,    0.3, -999.0
29-06-2023, 00:10:52,    344,    0.3,   13.0,   0.00,   0.00, 1013.2,    0.4, -999.0
29-06-2023, 00:11:02,    344,    0.2,   13.0,   0.00,   0.00, 1013.2,    0.3, -999.0
29-06-2023, 00:11:12,    327,    0.7,   13.0,   0.00,   0.00, 1013.2,    0.3, -999.0
29-06-2023, 00:11:22,    327,    1.0,   13.0,   0.00,   0.00, 1013.2,    0.2, -999.0
29-06-2023, 00:11:32,    327,    0.4,   13.0,   0.00,   0.01, 1013.2,    0.3, -999.0
29-06-2023, 00:11:42,    327,    0.0,   12.9,   0.00,   0.00, 1013.1,    0.3, -999.0
29-06-2023, 00:11:52,    326,    0.3,   12.9,   0.00,   0.00, 1013.2,    0.4, -999.0
29-06-2023, 00:12:02,    326,    0.0,   12.9,   0.00,   0.00, 1013.1,    0.3, -999.0
29-06-2023, 00:12:12,    326,    0.0,   12.9,   0.00,   0.00, 1013.1,    0.3, -999.0
29-06-2023, 00:12:22,    326,    0.0,   12.9,   0.00,   0.00, 1013.1,    0.2, -999.0
29-06-2023, 00:12:32,    315,    0.1,   12.8,   0.00,   0.01, 1013.1,    0.2, -999.0
29-06-2023, 00:12:42,    335,    0.4,   12.9,   0.00,   0.00, 1013.2,    0.3, -999.0
29-06-2023, 00:12:52,    343,    2.5,   13.0,   0.00,   0.00, 1013.2,    0.4, -999.0
29-06-2023, 00:13:02,    324,    2.0,   12.9,   0.00,   0.00, 1013.2,    0.3, -999.0
29-06-2023, 00:13:12,    308,    1.8,   12.9,   0.00,   0.00, 1013.2,    0.4, -999.0
29-06-2023, 00:13:22,    308,    0.3,   12.9,   0.00,   0.00, 1013.2,    0.4, -999.0
29-06-2023, 00:13:32,    311,    1.1,   12.9,   0.00,   0.01, 1013.2,    0.1, -999.0
29-06-2023, 00:13:42,    311,    1.1,   12.9,   0.00,   0.00, 1013.2,    0.5, -999.0
29-06-2023, 00:13:52,    311,    1.1,   12.9,   0.00,   0.00, 1013.2,    0.3, -999.0
29-06-2023, 00:14:02,    311,    0.6,   12.9,   0.00,   0.00, 1013.2,    0.2, -999.0
29-06-2023, 00:14:12,    334,    1.0,   12.9,   0.00,   0.00, 1013.2,    0.4, -999.0
29-06-2023, 00:14:22,    321,    2.8,   13.0,   0.00,   0.01, 1013.2,    0.2, -999.0
29-06-2023, 00:14:31,    319,    3.5,   12.9,   0.00,   0.00, 1013.2,    0.5, -999.0
29-06-2023, 00:14:42,    340,    2.3,   12.8,   0.00,   0.00, 1013.2,    0.3, -999.0
29-06-2023, 00:14:52,    304,    1.4,   12.8,   0.00,   0.00, 1013.2,    0.3, -999.0
29-06-2023, 00:15:01,    301,    0.8,   12.9,   0.00,   0.01, 1013.2,    0.4, -999.0
29-06-2023, 00:15:11,    315,    0.9,   12.9,   0.00,   0.00, 1013.2,    0.3, -999.0
29-06-2023, 00:15:22,    315,    0.8,   12.9,   0.00,   0.00, 1013.2,    0.4, -999.0
29-06-2023, 00:15:31,    315,    1.2,   13.1,   0.00,   0.00, 1013.2,    0.2, -999.0
29-06-2023, 00:15:41,    315,    1.1,   12.9,   0.00,   0.01, 1013.2,    0.3, -999.0
29-06-2023, 00:15:52,    317,    0.8,   12.9,   0.00,   0.00, 1013.2,    0.3, -999.0
29-06-2023, 00:16:02,    316,    0.1,   12.9,   0.00,   0.00, 1013.1,    0.2, -999.0
29-06-2023, 00:16:11,    317,    0.3,   13.0,   0.00,   0.00, 1013.2,    0.3, -999.0
29-06-2023, 00:16:21,    316,    0.1,   12.8,   0.00,   0.00, 1013.1,    0.2, -999.0
29-06-2023, 00:16:32,    316,    0.0,   12.8,   0.00,   0.01, 1013.1,    0.3, -999.0
29-06-2023, 00:16:41,    316,    0.0,   12.8,   0.00,   0.00, 1013.1,    0.6, -999.0
29-06-2023, 00:16:51,    316,    0.0,   12.8,   0.00,   0.00, 1013.1,    0.3, -999.0
29-06-2023, 00:17:01,    316,    0.0,   12.9,   0.00,   0.00, 1013.1,    0.1, -999.0
29-06-2023, 00:17:11,    316,    0.1,   12.9,   0.00,   0.01, 1013.2,    0.2, -999.0
29-06-2023, 00:17:21,    316,    0.0,   12.9,   0.00,   0.00, 1013.1,    0.2, -999.0
29-06-2023, 00:17:31,    318,    0.0,   12.9,   0.00,   0.00, 1013.1,    0.7, -999.0
29-06-2023, 00:17:41,    318,    0.7,   13.0,   0.00,   0.00, 1013.2,    0.3, -999.0
29-06-2023, 00:17:51,    319,    0.0,   12.9,   0.00,   0.00, 1013.1,    0.4, -999.0
29-06-2023, 00:18:01,    322,    0.7,   12.9,   0.00,   0.01, 1013.2,    0.3, -999.0
29-06-2023, 00:18:11,    321,    0.5,   12.9,   0.00,   0.00, 1013.2,    0.3, -999.0
29-06-2023, 00:18:21,    321,    0.0,   12.8,   0.00,   0.00, 1013.1,    0.2, -999.0
29-06-2023, 00:18:31,    321,    0.1,   12.8,   0.00,   0.00, 1013.1,    0.2, -999.0
29-06-2023, 00:18:41,    321,    0.7,   12.8,   0.00,   0.00, 1013.2,    0.5, -999.0
29-06-2023, 00:18:51,    321,    0.4,   12.9,   0.00,   0.01, 1013.2,    0.3, -999.0
29-06-2023, 00:19:01,    321,    0.0,   12.8,   0.00,   0.00, 1013.0,    0.4, -999.0
29-06-2023, 00:19:11,    331,    0.4,   12.9,   0.00,   0.00, 1013.2,    0.4, -999.0
29-06-2023, 00:19:21,    332,    0.0,   12.9,   0.00,   0.00, 1013.1,    0.2, -999.0
29-06-2023, 00:19:31,    332,    0.0,   12.9,   0.00,   0.00, 1013.1,    0.2, -999.0
29-06-2023, 00:19:41,    332,    0.1,   12.9,   0.00,   0.01, 1013.2,    0.2, -999.0
29-06-2023, 00:19:51,    331,    0.3,   12.8,   0.00,   0.00, 1013.1,    0.2, -999.0
29-06-2023, 00:20:01,    331,    2.8,   12.9,   0.00,   0.00, 1013.2,    0.3, -999.0
29-06-2023, 00:20:11,    346,    2.0,   12.8,   0.00,   0.00, 1013.2,    0.2, -999.0
29-06-2023, 00:20:21,    333,    1.8,   12.8,   0.00,   0.00, 1013.2,    0.5, -999.0
29-06-2023, 00:20:31,    330,    2.2,   12.8,   0.00,   0.00, 1013.2,    0.3, -999.0
29-06-2023, 00:20:41,    310,    1.4,   12.9,   0.00,   0.00, 1013.3,    0.4, -999.0
29-06-2023, 00:20:50,    312,    1.3,   12.9,   0.00,   0.01, 1013.2,    0.3, -999.0
29-06-2023, 00:21:01,    312,    0.2,   12.8,   0.00,   0.00, 1013.2,    0.3, -999.0
29-06-2023, 00:21:11,    312,    0.0,   12.6,   0.00,   0.00, 1013.1,    0.2, -999.0
29-06-2023, 00:21:21,    312,    0.0,   12.8,   0.00,   0.00, 1013.1,    0.1, -999.0
29-06-2023, 00:21:30,    310,    0.1,   12.9,   0.00,   0.00, 1013.2,    0.3, -999.0
29-06-2023, 00:21:41,    312,    0.8,   12.9,   0.00,   0.00, 1013.2,    0.4, -999.0
29-06-2023, 00:21:51,    313,    1.1,   12.8,   0.00,   0.00, 1013.2,    0.3, -999.0
29-06-2023, 00:22:00,    314,    0.9,   12.7,   0.00,   0.00, 1013.2,    0.5, -999.0
29-06-2023, 00:22:11,     20,    1.5,   12.8,   0.00,   0.01, 1013.2,    0.2, -999.0
29-06-2023, 00:22:21,      0,    1.5,   12.8,   0.00,   0.00, 1013.1,    0.2, -999.0
29-06-2023, 00:22:30,    355,    0.4,   12.8,   0.00,   0.00, 1013.2,    0.3, -999.0
29-06-2023, 00:22:40,    353,    0.0,   12.8,   0.00,   0.00, 1013.1,    0.3, -999.0
29-06-2023, 00:22:51,    352,    0.0,   12.8,   0.00,   0.00, 1013.1,    0.1, -999.0
29-06-2023, 00:23:00,    352,    0.4,   12.9,   0.00,   0.00, 1013.1,    0.2, -999.0
29-06-2023, 00:23:10,    352,    0.1,   12.9,   0.00,   0.00, 1013.1,    0.2, -999.0
29-06-2023, 00:23:20,    352,    0.0,   12.7,   0.00,   0.01, 1013.0,    0.4, -999.0
29-06-2023, 00:23:30,    352,    0.0,   12.8,   0.00,   0.00, 1013.1,    0.2, -999.0
29-06-2023, 00:23:40,    353,    0.0,   12.8,   0.00,   0.00, 1013.1,    0.3, -999.0
29-06-2023, 00:23:50,    353,    0.1,   12.8,   0.00,   0.00, 1013.1,    0.3, -999.0
29-06-2023, 00:24:00,    353,    0.6,   12.9,   0.00,   0.00, 1013.1,    0.3, -999.0
29-06-2023, 00:24:10,    352,    0.0,   12.8,   0.00,   0.00, 1013.1,    0.1, -999.0
29-06-2023, 00:24:20,      0,    0.1,   12.8,   0.00,   0.00, 1013.1,    0.3, -999.0
29-06-2023, 00:24:30,      0,    0.2,   12.8,   0.00,   0.00, 1013.1,    0.5, -999.0
29-06-2023, 00:24:40,      0,    0.3,   12.7,   0.00,   0.00, 1013.2,    0.2, -999.0
29-06-2023, 00:24:50,      0,    0.0,   12.8,   0.00,   0.01, 1013.0,    0.4, -999.0
29-06-2023, 00:25:00,      0,    0.0,   12.8,   0.00,   0.00, 1013.0,    0.2, -999.0
29-06-2023, 00:25:10,    331,    0.8,   12.8,   0.00,   0.00, 1013.1,    0.5, -999.0
29-06-2023, 00:25:20,    331,    0.1,   12.8,   0.00,   0.00, 1013.0,    0.6, -999.0
29-06-2023, 00:25:30,    331,    0.0,   12.8,   0.00,   0.00, 1013.1,    0.1, -999.0
29-06-2023, 00:25:40,    331,    0.0,   12.9,   0.00,   0.00, 1013.1,    0.3, -999.0
29-06-2023, 00:25:50,    331,    0.0,   12.9,   0.00,   0.00, 1013.1,    0.3, -999.0
29-06-2023, 00:26:00,    330,    0.0,   12.8,   0.00,   0.00, 1013.1,    0.4, -999.0
29-06-2023, 00:26:10,    329,    0.0,   12.7,   0.00,   0.00, 1013.1,    0.0, -999.0
29-06-2023, 00:26:20,    331,    0.0,   12.8,   0.00,   0.00, 1013.1,    0.3, -999.0
29-06-2023, 00:26:30,    331,    0.0,   12.7,   0.00,   0.00, 1013.1,    0.4, -999.0
29-06-2023, 00:26:40,    331,    0.1,   12.8,   0.00,   0.01, 1013.1,    0.4, -999.0
29-06-2023, 00:26:50,    330,    0.8,   12.8,   0.00,   0.00, 1013.2,    0.2, -999.0
29-06-2023, 00:27:00,    332,    0.7,   12.8,   0.00,   0.00, 1013.2,    0.3, -999.0
29-06-2023, 00:27:10,    332,    0.6,   12.8,   0.00,   0.00, 1013.2,    0.3, -999.0
29-06-2023, 00:27:20,    319,    1.6,   12.7,   0.00,   0.00, 1013.2,    0.2, -999.0
29-06-2023, 00:27:30,    315,    1.1,   12.6,   0.00,   0.00, 1013.2,    0.3, -999.0
29-06-2023, 00:27:40,    320,    0.3,   12.5,   0.00,   0.00, 1013.1,    0.1, -999.0
29-06-2023, 00:27:49,    320,    0.4,   12.7,   0.00,   0.00, 1013.2,    0.3, -999.0
29-06-2023, 00:28:00,    349,    0.8,   12.8,   0.00,   0.00, 1013.2,    0.3, -999.0
29-06-2023, 00:28:10,    347,    0.6,   12.8,   0.00,   0.00, 1013.2,    0.1, -999.0
29-06-2023, 00:28:19,    343,    1.3,   12.7,   0.00,   0.00, 1013.2,    0.5, -999.0
29-06-2023, 00:28:29,    343,    0.2,   12.7,   0.00,   0.00, 1013.1,    0.2, -999.0
29-06-2023, 00:28:40,    356,    1.1,   12.7,   0.00,   0.01, 1013.2,    0.3, -999.0
29-06-2023, 00:28:49,    336,    1.0,   12.8,   0.00,   0.00, 1013.2,    0.3, -999.0
29-06-2023, 00:28:59,    337,    0.6,   12.7,   0.00,   0.00, 1013.2,    0.2, -999.0
29-06-2023, 00:29:10,    340,    0.6,   12.7,   0.00,   0.00, 1013.2,    0.3, -999.0
29-06-2023, 00:29:20,    340,    0.0,   12.7,   0.00,   0.00, 1013.1,    0.2, -999.0
29-06-2023, 00:29:29,    340,    0.0,   12.7,   0.00,   0.00, 1013.1,    0.0, -999.0
29-06-2023, 00:29:41,    318,    0.5,   12.8,   0.00,   0.00, 1013.2,    0.3, -999.0
29-06-2023, 00:29:50,    322,    1.7,   12.7,   0.00,   0.00, 1013.2,    0.4, -999.0
29-06-2023, 00:29:59,    321,    0.9,   12.7,   0.00,   0.00, 1013.2,    0.4, -999.0
29-06-2023, 00:30:09,    321,    1.1,   12.7,   0.00,   0.00, 1013.2,    0.2, -999.0
29-06-2023, 00:30:19,    321,    0.6,   12.6,   0.00,   0.00, 1013.2,    0.4, -999.0
29-06-2023, 00:30:29,    351,    0.3,   12.6,   0.00,   0.00, 1013.1,    0.1, -999.0
29-06-2023, 00:30:39,    347,    1.9,   12.7,   0.00,   0.00, 1013.2,    0.2, -999.0
29-06-2023, 00:30:49,    346,    0.2,   12.6,   0.00,   0.01, 1013.1,    0.5, -999.0
29-06-2023, 00:30:59,    337,    1.1,   12.7,   0.00,   0.00, 1013.2,    0.2, -999.0
29-06-2023, 00:31:09,    334,    1.6,   12.7,   0.00,   0.00, 1013.2,    0.1, -999.0
29-06-2023, 00:31:19,    337,    1.5,   12.7,   0.00,   0.00, 1013.2,    0.4, -999.0
29-06-2023, 00:31:29,    332,    0.7,   12.7,   0.00,   0.00, 1013.2,    0.4, -999.0
29-06-2023, 00:31:39,    331,    0.8,   12.6,   0.00,   0.00, 1013.2,    0.4, -999.0
29-06-2023, 00:31:49,    319,    2.1,   12.7,   0.00,   0.00, 1013.2,    0.5, -999.0
29-06-2023, 00:31:59,    327,    2.0,   12.7,   0.00,   0.00, 1013.2,    0.4, -999.0
29-06-2023, 00:32:09,    317,    1.6,   12.7,   0.00,   0.00, 1013.2,    0.4, -999.0
29-06-2023, 00:32:19,    317,    0.3,   12.6,   0.00,   0.00, 1013.2,    0.3, -999.0
29-06-2023, 00:32:29,    317,    0.0,   12.6,   0.00,   0.00, 1013.1,    0.3, -999.0
29-06-2023, 00:32:39,    317,    0.0,   12.6,   0.00,   0.00, 1013.1,    0.5, -999.0
29-06-2023, 00:32:49,    306,    0.6,   12.7,   0.00,   0.00, 1013.2,    0.3, -999.0
29-06-2023, 00:32:59,    305,    0.5,   12.7,   0.00,   0.00, 1013.2,    0.4, -999.0
29-06-2023, 00:33:09,    305,    0.2,   12.8,   0.00,   0.00, 1013.2,    0.3, -999.0
29-06-2023, 00:33:19,    312,    0.1,   12.8,   0.00,   0.00, 1013.2,    0.3, -999.0
29-06-2023, 00:33:29,    311,    0.1,   12.8,   0.00,   0.00, 1013.2,    0.4, -999.0
29-06-2023, 00:33:39,    312,    0.5,   12.7,   0.00,   0.01, 1013.2,    0.3, -999.0
29-06-2023, 00:33:49,    312,    0.5,   12.8,   0.00,   0.00, 1013.3,    0.3, -999.0
29-06-2023, 00:33:59,    311,    0.1,   12.7,   0.00,   0.00, 1013.1,    0.4, -999.0
29-06-2023, 00:34:08,    311,    0.0,   12.7,   0.00,   0.00, 1013.1,    0.0, -999.0
29-06-2023, 00:34:19,    312,    0.0,   12.7,   0.00,   0.00, 1013.1,    0.0, -999.0
29-06-2023, 00:34:29,    312,    0.0,   12.5,   0.00,   0.00, 1013.0,    0.2, -999.0
29-06-2023, 00:34:38,    312,    0.0,   12.6,   0.00,   0.00, 1013.1,    0.3, -999.0
29-06-2023, 00:34:49,    312,    0.0,   12.6,   0.00,   0.00, 1013.1,    0.0, -999.0
29-06-2023, 00:34:59,    312,    0.0,   12.7,   0.00,   0.00, 1013.1,    0.0, -999.0
29-06-2023, 00:35:09,    312,    0.0,   12.7,   0.00,   0.00, 1013.1,    0.4, -999.0
29-06-2023, 00:35:18,    312,    0.0,   12.6,   0.00,   0.00, 1013.1,    0.1, -999.0
29-06-2023, 00:35:29,    312,    0.0,   12.7,   0.00,   0.00, 1013.0,    0.2, -999.0
29-06-2023, 00:35:39,    312,    0.0,   12.6,   0.00,   0.00, 1013.1,    0.5, -999.0
29-06-2023, 00:35:48,    312,    0.4,   12.6,   0.00,   0.00, 1013.2,    0.1, -999.0
29-06-2023, 00:35:58,    313,    0.3,   12.7,   0.00,   0.00, 1013.2,    0.4, -999.0
29-06-2023, 00:36:09,    312,    0.0,   12.7,   0.00,   0.00, 1013.1,    0.2, -999.0
29-06-2023, 00:36:18,    313,    0.1,   12.7,   0.00,   0.00, 1013.1,    0.1, -999.0
29-06-2023, 00:36:28,    313,    0.0,   12.7,   0.00,   0.00, 1013.1,    0.3, -999.0
29-06-2023, 00:36:38,    314,    0.6,   12.7,   0.00,   0.00, 1013.2,    0.2, -999.0
29-06-2023, 00:36:48,    358,    0.8,   12.7,   0.00,   0.00, 1013.2,    0.3, -999.0
29-06-2023, 00:36:58,    354,    0.8,   12.7,   0.00,   0.00, 1013.2,    0.2, -999.0
29-06-2023, 00:37:08,    333,    1.2,   12.6,   0.00,   0.00, 1013.2,    0.3, -999.0
29-06-2023, 00:37:18,    351,    1.0,   12.7,   0.00,   0.01, 1013.1,    0.4, -999.0
29-06-2023, 00:37:28,    330,    1.9,   12.6,   0.00,   0.00, 1013.2,    0.4, -999.0
29-06-2023, 00:37:38,    333,    1.9,   12.6,   0.00,   0.00, 1013.2,    0.4, -999.0
29-06-2023, 00:37:48,    332,    1.0,   12.6,   0.00,   0.00, 1013.2,    0.3, -999.0
29-06-2023, 00:37:58,    331,    2.1,   12.6,   0.00,   0.00, 1013.2,    0.4, -999.0
29-06-2023, 00:38:08,    338,    2.3,   12.6,   0.00,   0.00, 1013.2,    0.3, -999.0
29-06-2023, 00:38:18,    338,    1.8,   12.5,   0.00,   0.00, 1013.2,    0.3, -999.0
29-06-2023, 00:38:28,    334,    1.5,   12.6,   0.00,   0.00, 1013.1,    0.3, -999.0
29-06-2023, 00:38:38,    338,    1.2,   12.6,   0.00,   0.00, 1013.2,    0.3, -999.0
29-06-2023, 00:38:48,    338,    0.5,   12.6,   0.00,   0.00, 1013.2,    0.2, -999.0
29-06-2023, 00:38:58,    332,    1.8,   12.6,   0.00,   0.00, 1013.2,    0.2, -999.0
29-06-2023, 00:39:08,    317,    2.2,   12.7,   0.00,   0.00, 1013.2,    0.4, -999.0
29-06-2023, 00:39:18,    304,    1.5,   12.6,   0.00,   0.00, 1013.2,    0.2, -999.0
29-06-2023, 00:39:28,    304,    0.2,   12.6,   0.00,   0.00, 1013.1,    0.6, -999.0
29-06-2023, 00:39:38,    307,    0.0,   12.5,   0.00,   0.00, 1013.0,    0.2, -999.0
29-06-2023, 00:39:48,    309,    0.9,   12.6,   0.00,   0.00, 1013.2,    0.0, -999.0
29-06-2023, 00:39:58,    310,    1.7,   12.7,   0.00,   0.00, 1013.2,    0.3, -999.0
29-06-2023, 00:40:08,    310,    1.2,   12.7,   0.00,   0.00, 1013.2,    0.2, -999.0
29-06-2023, 00:40:18,    315,    0.7,   12.7,   0.00,   0.00, 1013.2,    0.4, -999.0
29-06-2023, 00:40:28,    312,    0.7,   12.7,   0.00,   0.00, 1013.2,    0.4, -999.0
29-06-2023, 00:40:38,    315,    0.0,   12.5,   0.00,   0.00, 1013.1,    0.2, -999.0
29-06-2023, 00:40:48,    312,    0.2,   12.6,   0.00,   0.00, 1013.1,    0.4, -999.0
29-06-2023, 00:40:58,    316,    0.3,   12.6,   0.00,   0.00, 1013.1,    0.4, -999.0
29-06-2023, 00:41:07,    315,    0.6,   12.7,   0.00,   0.00, 1013.2,    0.0, -999.0
29-06-2023, 00:41:18,    318,    0.2,   12.6,   0.00,   0.00, 1013.1,    0.3, -999.0
29-06-2023, 00:41:28,    317,    0.0,   12.6,   0.00,   0.00, 1013.1,    0.3, -999.0
29-06-2023, 00:41:37,    317,    0.4,   12.6,   0.00,   0.01, 1013.2,    0.3, -999.0
29-06-2023, 00:41:48,    317,    0.8,   12.6,   0.00,   0.00, 1013.2,    0.6, -999.0
29-06-2023, 00:41:58,    318,    0.8,   12.7,   0.00,   0.00, 1013.2,    0.4, -999.0
29-06-2023, 00:42:07,    349,    2.3,   12.6,   0.00,   0.00, 1013.2,    0.1, -999.0
29-06-2023, 00:42:17,    358,    1.0,   12.7,   0.00,   0.00, 1013.2,    0.1, -999.0
29-06-2023, 00:42:28,    358,    0.6,   12.6,   0.00,   0.00, 1013.2,    0.5, -999.0
29-06-2023, 00:42:38,    358,    0.4,   12.6,   0.00,   0.00, 1013.2,    0.3, -999.0
29-06-2023, 00:42:47,    358,    0.6,   12.5,   0.00,   0.00, 1013.1,    0.3, -999.0
29-06-2023, 00:42:57,    358,    0.1,   12.6,   0.00,   0.00, 1013.1,    0.1, -999.0
29-06-2023, 00:43:08,    349,    0.5,   12.6,   0.00,   0.00, 1013.1,    0.1, -999.0
29-06-2023, 00:43:17,    329,    1.1,   12.6,   0.00,   0.00, 1013.1,    0.2, -999.0
29-06-2023, 00:43:27,    330,    1.1,   12.7,   0.00,   0.00, 1013.2,    0.0, -999.0
29-06-2023, 00:43:37,    330,    0.1,   12.6,   0.00,   0.00, 1013.1,    0.0, -999.0
29-06-2023, 00:43:47,    329,    0.3,   12.6,   0.00,   0.00, 1013.2,    0.4, -999.0
29-06-2023, 00:43:57,    330,    0.0,   12.6,   0.00,   0.00, 1013.0,    0.3, -999.0
29-06-2023, 00:44:07,    331,    0.0,   12.5,   0.00,   0.00, 1013.0,    0.2, -999.0
29-06-2023, 00:44:17,    330,    0.2,   12.6,   0.00,   0.00, 1013.1,    0.1, -999.0
29-06-2023, 00:44:27,    330,    0.8,   12.7,   0.00,   0.01, 1013.2,    0.4, -999.0
29-06-2023, 00:44:37,    330,    1.6,   12.6,   0.00,   0.00, 1013.1,    0.4, -999.0
29-06-2023, 00:44:47,    330,    1.3,   12.6,   0.00,   0.00, 1013.2,    0.2, -999.0
29-06-2023, 00:44:57,    330,    0.3,   12.6,   0.00,   0.00, 1013.1,    0.4, -999.0
29-06-2023, 00:45:07,    330,    0.1,   12.6,   0.00,   0.00, 1013.1,    0.5, -999.0
29-06-2023, 00:45:17,    330,    1.0,   12.6,   0.00,   0.00, 1013.1,    0.6, -999.0
29-06-2023, 00:45:27,    325,    1.6,   12.6,   0.00,   0.00, 1013.1,    0.7, -999.0
29-06-2023, 00:45:37,    325,    1.2,   12.6,   0.00,   0.00, 1013.1,    0.3, -999.0
29-06-2023, 00:45:47,    326,    0.7,   12.6,   0.00,   0.00, 1013.1,    0.2, -999.0
29-06-2023, 00:45:57,    326,    0.8,   12.6,   0.00,   0.00, 1013.1,    0.3, -999.0
29-06-2023, 00:46:07,    323,    1.3,   12.7,   0.00,   0.00, 1013.1,    0.4, -999.0
29-06-2023, 00:46:17,    313,    1.8,   12.6,   0.00,   0.00, 1013.2,    0.3, -999.0
29-06-2023, 00:46:27,    315,    1.0,   12.6,   0.00,   0.00, 1013.1,    0.0, -999.0
29-06-2023, 00:46:37,    316,    1.1,   12.7,   0.00,   0.00, 1013.1,    0.4, -999.0
29-06-2023, 00:46:47,    316,    0.9,   12.6,   0.00,   0.00, 1013.2,    0.3, -999.0